Regional Weather Roundup
Issued by NWS

Home | Current Version | Previous Version | Graphics & Text | Print | Product List | Glossary On
Versions: 1 2 3 4 5 6 7 8 9 10 11 12 13 14 15 16 17 18 19 20 21 22 23 24 25 26 27 28 29 30 31 32 33 34 35 36 37 38 39 40 41 42 43 44 45 46 47 48 49 50
000
ASUS45 KABQ 291410
RWRNM
NEW MEXICO REGIONAL WEATHER ROUNDUP
NATIONAL WEATHER SERVICE ALBUQUERQUE NM
800 AM MDT FRI JUL 29 2016

NOTE: "FAIR" MEANS FEW OR NO CLOUDS BELOW 12,000 FEET AGL WITH NO
       SIGNIFICANT WEATHER OR OBSTRUCTIONS TO VISION.

      THIS PRODUCT IS RELEASED AS TWO VERSIONS.  ONE VERSION NEAR
      THE TOP OF THE HOUR CONTAINING PRELIMINARY DATA FROM ALBUQUERQUE
      AND OTHER STATIONS.  A FINAL VERSION WITH ADDITIONAL DATA IS
      ISSUED ABOUT 10 MINUTES AFTER THE HOUR.

NMZ501-503-504-510>518-291500-
NORTHWEST PLATEAU/NORTHCENTRAL MOUNTAINS

CITY           SKY/WX    TMP DP  RH WIND       PRES   REMARKS
FARMINGTON     FAIR      71  41  33 E9        30.15R
LOS ALAMOS     FAIR      71  44  37 SW13G21   30.33S
SANTA FE       NOT AVBL
TAOS           FAIR      70  37  30 E6        30.33S
ANGEL FIRE     FAIR      51  45  77 CALM      30.44F

$$
NMZ402-403-502-505>509-291500-
WESTCENTRAL MOUNTAINS/SOUTHWEST MOUNTAINS

CITY           SKY/WX    TMP DP  RH WIND       PRES   REMARKS
GALLUP         FAIR      65  41  41 CALM      30.25S
GRANTS         FAIR      66  45  45 SE10      30.28F
SILVER CITY    FAIR      73  56  54 N5        30.20S

$$
NMZ407-409-411-412-291500-
SOUTHERN DESERTS

CITY           SKY/WX    TMP DP  RH WIND       PRES   REMARKS
LORDSBURG      FAIR      79  54  41 S5        30.10S
DEMING         FAIR      77  54  44 E8        30.12R
LAS CRUCES     FAIR      78  55  44 E5        30.14S
HOLLOMAN AFB   FAIR      77  55  46 N3        30.11R
ALAMOGORDO     FAIR      77  54  44 NE3       30.13S
T OR C         FAIR      75  55  49 SW3       30.15S

$$
NMZ519>523-291500-
CENTRAL VALLEYS/CENTRAL HIGHLANDS

CITY           SKY/WX    TMP DP  RH WIND       PRES   REMARKS
ALBUQUERQUE    FAIR      76  51  41 SE3       30.19S
DOUBLE EAGLE   MOSUNNY   75  50  41 S10       30.22F
MORIARTY ARPT  FAIR      66  49  54 CALM      30.28R
CLINES CORNERS PTSUNNY   68  49  50 MISG      30.35R
BELEN          FAIR      77  48  35 S8        30.18S
SOCORRO        FAIR      74  51  43 SE12      30.15S

$$
NMZ524>526-539-540-291500-
SOUTHCENTRAL MOUNTAINS

CITY           SKY/WX    TMP DP  RH WIND       PRES   REMARKS
RUIDOSO          N/A     66  50  55 NW5       30.34R

$$
NMZ527>531-291500-
NORTHEAST HIGHLANDS/NORTHEAST PLAINS

CITY           SKY/WX    TMP DP  RH WIND       PRES   REMARKS
LAS VEGAS      FAIR      65  52  62 SE8       30.31R
RATON          FAIR      64  51  62 S6        30.27S
CLAYTON        FAIR      69  59  70 SW7       30.19S

$$
NMZ532>537-291500-
EASTCENTRAL PLAINS

CITY           SKY/WX    TMP DP  RH WIND       PRES   REMARKS
TUCUMCARI      FAIR      80  60  50 SW9       30.13F
CANNON AFB     CLOUDY    73  61  64 E6        30.18R
CLOVIS AIRPORT FAIR      73  57  56 CALM      30.17S

$$
NMZ028-029-538-291500-
SOUTHEAST PLAINS

CITY           SKY/WX    TMP DP  RH WIND       PRES   REMARKS
ROSWELL        FAIR      75  61  61 S8        30.10R
ARTESIA        FAIR      75  64  69 S9        30.10R
CARLSBAD       FAIR      76  63  64 SE8       30.07R
HOBBS          SUNNY     73  63  68 SE5       30.14R


$$



USA.gov is the U.S. government's official web portal to all federal, state and local government web resources and services.